EW2725 Weather Reports


Display with metric or nautical units.
time (UTC)temp
F
wind
direction
speed
MPH
gust
MPH
rain 1hr
in
rain 24hr
in
rain mn
in
humidity
%
barometer
mb
20260510073018 54 232 2.0 0.0 0.00 0.00 0.00 90 1100.1
20260510072505 54 0 0.0 0.0 0.00 0.14 0.00 94 1012.0
20260510072006 54 0 0.0 0.0 0.00 0.14 0.00 94 1011.9
20260510071603 54 232 2.0 0.0 0.00 0.00 0.00 90 1100.1
20260510071507 54 0 0.0 0.0 0.00 0.14 0.00 94 1012.0
20260510071006 54 0 0.0 0.0 0.00 0.14 0.00 94 1011.9
20260510070506 54 0 0.0 0.0 0.00 0.14 0.00 94 1011.8
20260510070010 54 232 2.0 0.0 0.00 0.00 0.00 90 1100.1
20260510065006 54 0 0.0 0.0 0.00 0.14 0.00 94 1011.8
20260510064507 54 232 2.0 0.0 0.00 0.00 0.00 90 1100.1
20260510063505 54 359 0.0 0.0 0.00 0.14 0.00 94 1011.8
20260510063112 54 232 3.0 0.0 0.00 0.00 0.00 90 1100.1
20260510063006 54 358 0.0 0.0 0.00 0.14 0.00 94 1011.8
20260510062006 54 0 0.0 0.0 0.00 0.14 0.00 94 1011.9
20260510061605 54 223 2.0 0.0 0.00 0.00 0.00 89 1100.1
20260510061505 54 359 0.0 0.0 0.00 0.14 0.00 94 1011.9
20260510060019 54 223 4.0 0.0 0.00 0.00 0.00 89 1100.1
20260510055006 54 359 0.0 0.0 0.00 0.14 0.00 94 1011.8
20260510054613 54 238 3.0 0.0 0.00 0.00 0.00 89 1100.1
20260510054506 54 0 0.0 0.0 0.00 0.14 0.00 94 1011.8
20260510053114 54 238 4.0 0.0 0.00 0.00 0.00 89 1100.1
20260510051608 55 238 4.0 0.0 0.00 0.00 0.00 89 1100.1
20260510050108 54 217 3.0 0.0 0.00 0.00 0.00 89 1100.1
20260510050005 54 0 0.0 0.0 0.00 0.14 0.00 94 1011.7
20260510044507 54 182 4.0 0.0 0.00 0.00 0.00 89 1100.1
20260510043505 54 0 0.0 0.0 0.00 0.14 0.00 94 1011.9
20260510043101 54 193 4.0 0.0 0.00 0.00 0.18 89 1100.1
20260510043006 54 0 0.0 0.0 0.00 0.14 0.00 94 1012.0
20260510041511 54 220 4.0 0.0 0.00 0.00 0.18 88 1100.1
20260510041505 53 0 0.0 0.0 0.00 0.14 0.00 94 1012.0
20260510040124 54 222 5.0 0.0 0.00 0.00 0.18 89 1100.1
20260510034554 53 216 2.0 0.0 0.00 0.00 0.18 89 1100.1
20260510034505 52 359 0.0 0.0 0.01 0.14 0.14 94 1011.5
20260510033506 52 0 0.0 0.0 0.01 0.14 0.14 94 1011.9
20260510033112 52 273 1.0 0.0 0.00 0.00 0.18 88 1100.1
20260510033006 52 0 0.0 0.0 0.01 0.14 0.14 94 1011.8
20260510032006 51 0 0.0 0.0 0.01 0.14 0.14 94 1011.9
20260510031616 52 273 1.0 0.0 0.00 0.00 0.18 88 1100.1
20260510030506 51 0 0.0 0.0 0.01 0.14 0.14 94 1012.2
20260510030114 52 273 1.0 0.0 0.00 0.00 0.17 88 1100.1
20260510030006 51 0 0.0 0.0 0.01 0.14 0.14 94 1012.3
20260510025506 51 0 0.0 0.0 0.00 0.13 0.13 94 1012.2
20260510024618 51 273 1.0 0.0 0.00 0.00 0.17 88 1100.1
20260510024006 51 0 0.0 0.0 0.00 0.13 0.13 93 1012.6
20260510023113 51 286 1.0 0.0 0.00 0.00 0.17 88 1100.1
20260510023007 51 0 0.0 0.0 0.01 0.13 0.13 93 1012.5
20260510022506 51 0 0.0 0.0 0.01 0.13 0.13 93 1012.8
20260510022006 51 0 0.0 0.0 0.01 0.13 0.13 93 1013.0
20260510021619 51 277 1.0 0.0 0.00 0.00 0.17 89 1100.1
20260510021506 51 0 0.0 0.0 0.01 0.13 0.13 93 1013.1
20260510021006 51 0 0.0 0.0 0.01 0.13 0.13 93 1013.2
20260510020506 51 0 0.0 0.0 0.02 0.13 0.13 93 1013.1
20260510020124 51 134 1.0 0.0 0.00 0.00 0.17 89 1100.1
20260510014644 51 143 2.0 0.0 0.00 0.00 0.16 89 1100.1
20260510013007 52 131 1.0 0.0 0.00 0.00 0.16 89 1100.1
20260510012506 52 358 0.0 0.0 0.03 0.12 0.12 93 1013.8
20260510011506 52 0 0.0 0.0 0.04 0.12 0.12 93 1013.8
20260510011501 52 212 1.0 0.0 0.00 0.00 0.15 89 1100.1
20260510010105 52 186 3.0 0.0 0.00 0.00 0.15 89 1100.1
20260510005506 52 0 0.0 0.0 0.04 0.11 0.11 93 1014.2
20260510004513 52 140 2.0 0.0 0.00 0.00 0.13 89 1100.1
20260510004006 53 0 0.0 0.0 0.03 0.09 0.09 92 1014.1
20260510003023 52 210 3.0 0.0 0.00 0.00 0.12 89 1100.1
20260510002505 53 0 0.0 0.0 0.03 0.09 0.09 92 1014.1
20260510002006 53 0 0.0 0.0 0.04 0.09 0.09 92 1014.0
20260510001513 53 217 2.0 0.0 0.00 0.00 0.11 89 1100.1
20260510000506 53 0 0.0 0.0 0.04 0.08 0.08 92 1014.1
20260510000108 53 215 2.0 0.0 0.00 0.00 0.10 89 1100.1
20260510000006 54 358 0.0 0.0 0.03 0.07 0.07 92 1014.1
20260509235505 54 0 0.0 0.0 0.04 0.07 0.07 92 1014.2
20260509234612 53 262 0.0 0.0 0.00 0.00 0.09 88 1100.1
20260509234506 54 0 0.0 0.0 0.04 0.07 0.07 91 1014.0
20260509234006 54 0 0.0 0.0 0.03 0.06 0.06 91 1014.0
20260509233508 54 0 0.0 0.0 0.03 0.06 0.06 91 1014.1
20260509233115 54 262 1.0 0.0 0.00 0.00 0.09 88 1100.1
20260509233006 54 0 0.0 0.0 0.03 0.06 0.06 91 1013.8
20260509231620 54 262 1.0 0.0 0.00 0.00 0.08 87 1100.1
20260509231006 54 0 0.0 0.0 0.02 0.05 0.05 90 1013.8
20260509230506 54 0 0.0 0.0 0.01 0.04 0.04 90 1013.8
20260509230122 54 262 3.0 0.0 0.00 0.00 0.06 86 1100.1
20260509225506 54 0 0.0 0.0 0.00 0.03 0.03 90 1013.6
20260509225006 54 0 0.0 0.0 0.01 0.03 0.03 90 1013.8
20260509224618 54 236 2.0 0.0 0.00 0.00 0.05 85 1100.1
20260509224506 54 0 0.0 0.0 0.01 0.03 0.03 89 1013.7
20260509223506 54 0 0.0 0.0 0.01 0.03 0.03 89 1013.5
20260509223118 54 236 1.0 0.0 0.00 0.00 0.05 85 1100.1
20260509221620 54 237 3.0 0.0 0.00 0.00 0.05 85 1100.1
20260509221506 54 0 0.0 0.0 0.01 0.03 0.03 88 1013.3
20260509220130 54 240 4.0 0.0 0.00 0.00 0.05 84 1100.1
20260509215506 55 0 0.0 0.0 0.01 0.03 0.03 86 1013.3
20260509214502 55 222 5.0 0.0 0.00 0.00 0.04 82 1100.1
20260509213006 57 0 0.0 0.0 0.00 0.02 0.02 82 1013.0
20260509213004 56 225 5.0 0.0 0.00 0.00 0.03 79 1100.1
20260509211559 57 229 4.0 0.0 0.00 0.00 0.03 75 1100.1
20260509211006 58 0 0.0 0.0 0.00 0.02 0.02 78 1012.7
20260509210505 58 0 0.0 0.0 0.00 0.02 0.02 77 1012.6
20260509210015 58 225 4.0 0.0 0.00 0.00 0.03 74 1100.1
20260509204611 58 231 5.0 0.0 0.00 0.00 0.03 74 1100.1
20260509204005 58 0 0.0 0.0 0.00 0.02 0.02 79 1012.8
20260509203115 57 233 5.0 0.0 0.00 0.00 0.03 75 1100.1
20260509202505 57 0 0.0 0.0 0.00 0.02 0.02 79 1012.9
20260509202005 57 0 0.0 0.0 0.00 0.02 0.02 80 1013.0
20260509201627 57 217 5.0 0.0 0.00 0.00 0.03 76 1100.1
20260509201505 57 0 0.0 0.0 0.00 0.02 0.02 80 1013.0
20260509200505 57 0 0.0 0.0 0.00 0.02 0.02 80 1013.1
20260509200137 57 223 5.0 0.0 0.00 0.00 0.03 77 1100.1
20260509195505 57 0 0.0 0.0 0.00 0.02 0.02 79 1013.0
20260509195005 58 0 0.0 0.0 0.00 0.02 0.02 79 1013.1
20260509194636 57 221 4.0 0.0 0.00 0.00 0.03 76 1100.1
20260509194505 58 0 0.0 0.0 0.00 0.02 0.02 80 1013.1
20260509193506 58 0 0.0 0.0 0.00 0.02 0.02 79 1013.2
20260509193134 58 230 6.0 0.0 0.00 0.00 0.03 75 1100.1
20260509193005 58 0 0.0 0.0 0.00 0.02 0.02 79 1013.3
20260509191634 57 194 5.0 0.0 0.00 0.00 0.03 76 1100.1
20260509190137 57 187 5.0 0.0 0.00 0.00 0.03 75 1100.1
20260509190006 58 0 0.0 0.0 0.00 0.02 0.02 78 1013.3
20260509184643 58 237 6.0 0.0 0.00 0.00 0.03 73 1100.1
20260509184005 59 0 0.0 0.0 0.00 0.02 0.02 74 1013.4
20260509183505 59 0 0.0 0.0 0.00 0.02 0.02 73 1013.4
20260509183141 58 128 6.0 0.0 0.00 0.00 0.03 71 1100.1
20260509183006 59 0 0.0 0.0 0.00 0.02 0.02 73 1013.4
20260509181506 60 0 0.0 0.0 0.00 0.02 0.02 71 1013.6
20260509181501 59 236 7.0 0.0 0.00 0.00 0.03 70 1100.1
20260509181005 60 0 0.0 0.0 0.00 0.02 0.02 71 1013.4
20260509180505 60 0 0.0 0.0 0.00 0.02 0.02 72 1013.5
20260509180132 59 229 4.0 0.0 0.00 0.00 0.03 71 1100.1
20260509175506 58 0 0.0 0.0 0.00 0.02 0.02 73 1013.5
20260509174505 58 0 0.0 0.0 0.00 0.02 0.02 74 1013.6
20260509173013 58 235 4.0 0.0 0.00 0.00 0.03 72 1100.1
20260509172008 59 0 0.0 0.0 0.00 0.02 0.02 73 1014.0
20260509171504 58 218 6.0 0.0 0.00 0.00 0.03 70 1100.1
20260509170505 59 0 0.0 0.0 0.00 0.02 0.02 71 1014.0
20260509170143 59 234 5.0 0.0 0.00 0.00 0.03 68 1100.1
20260509170005 59 0 0.0 0.0 0.00 0.02 0.02 69 1013.8
20260509165505 60 0 0.0 0.0 0.00 0.02 0.02 69 1013.9
20260509165005 60 0 0.0 0.0 0.00 0.02 0.02 69 1013.8
20260509164634 59 164 7.0 0.0 0.00 0.00 0.03 67 1100.1
20260509163140 59 175 6.0 0.0 0.00 0.00 0.03 65 1100.1
20260509161634 60 196 7.0 0.0 0.00 0.00 0.03 64 1100.1
20260509161005 62 0 0.0 0.0 0.00 0.02 0.02 64 1014.0
20260509160505 61 0 0.0 0.0 0.00 0.02 0.02 66 1014.0
20260509160125 60 231 6.0 0.0 0.00 0.00 0.03 65 1100.1
20260509160005 60 0 0.0 0.0 0.00 0.02 0.02 67 1014.0
20260509155505 60 0 0.0 0.0 0.00 0.02 0.02 66 1014.1
20260509154632 59 240 7.0 0.0 0.00 0.00 0.03 66 1100.1
20260509153127 58 225 6.0 0.0 0.00 0.00 0.03 69 1100.1
20260509153006 59 0 0.0 0.0 0.00 0.02 0.02 70 1014.5
20260509152505 60 0 0.0 0.0 0.00 0.02 0.02 71 1014.5
20260509152005 59 0 0.0 0.0 0.00 0.02 0.02 71 1014.4
20260509151614 58 264 5.0 0.0 0.00 0.00 0.03 69 1100.1
20260509151005 59 0 0.0 0.0 0.00 0.02 0.02 70 1014.6
20260509150112 58 264 5.0 0.0 0.00 0.00 0.03 71 1100.1
20260509145005 58 0 0.0 0.0 0.00 0.02 0.02 73 1014.4
20260509144619 57 264 4.0 0.0 0.00 0.00 0.03 71 1100.1
20260509144505 58 0 0.0 0.0 0.00 0.02 0.02 73 1014.5
20260509143505 58 0 0.0 0.0 0.00 0.02 0.02 73 1014.5
20260509143115 58 264 4.0 0.0 0.00 0.00 0.03 72 1100.1
20260509142505 57 0 0.0 0.0 0.00 0.02 0.02 76 1014.4
20260509142005 56 0 0.0 0.0 0.00 0.02 0.02 76 1014.5
20260509141612 56 264 4.0 0.0 0.00 0.00 0.03 72 1100.1
20260509141505 56 0 0.0 0.0 0.00 0.02 0.02 76 1014.7
20260509140118 56 264 3.0 0.0 0.00 0.00 0.03 75 1100.1
20260509135006 55 0 0.0 0.0 0.00 0.02 0.02 82 1015.0
20260509134511 55 264 2.0 0.0 0.00 0.00 0.03 79 1100.1
20260509133505 54 0 0.0 0.0 0.00 0.02 0.02 85 1015.2
20260509133011 53 264 1.0 0.0 0.00 0.00 0.03 79 1100.1
20260509133005 54 0 0.0 0.0 0.00 0.02 0.02 85 1015.1
20260509132504 53 0 0.0 0.0 0.00 0.02 0.02 85 1015.1
20260509131612 53 264 2.0 0.0 0.00 0.00 0.03 80 1100.1
20260509131005 52 0 0.0 0.0 0.00 0.02 0.02 87 1015.3
20260509130112 52 264 2.0 0.0 0.00 0.00 0.03 81 1100.1
20260509124507 51 264 1.0 0.0 0.00 0.00 0.03 87 1100.1
20260509123018 50 264 1.0 0.0 0.00 0.00 0.03 90 1100.1
20260509123005 50 0 0.0 0.0 0.01 0.02 0.02 94 1015.2
20260509122005 50 0 0.0 0.0 0.01 0.02 0.02 94 1015.3
20260509121612 49 264 0.0 0.0 0.00 0.00 0.03 90 1100.1
20260509120114 49 264 0.0 0.0 0.00 0.00 0.03 90 1100.1
20260509120005 48 359 0.0 0.0 0.02 0.02 0.02 94 1015.4
20260509114506 48 264 0.0 0.0 0.00 0.00 0.03 90 1100.1
20260509113507 47 0 0.0 0.0 0.01 0.01 0.01 94 1015.9
20260509113101 47 264 0.0 0.0 0.00 0.00 0.02 89 1100.1
20260509112505 47 0 0.0 0.0 0.01 0.01 0.01 93 1016.1
20260509111502 46 264 0.0 0.0 0.00 0.00 0.01 89 1100.1
20260509110008 46 264 0.0 0.0 0.00 0.00 0.00 89 1100.1
20260509110006 46 0 0.0 0.0 0.00 0.00 0.00 93 1015.8
20260509105005 45 0 0.0 0.0 0.00 0.00 0.00 93 1015.8
20260509104511 46 264 0.0 0.0 0.00 0.00 0.00 89 1100.1
20260509103505 45 0 0.0 0.0 0.00 0.00 0.00 93 1015.5
20260509103005 45 264 0.0 0.0 0.00 0.00 0.00 89 1100.1
20260509101506 44 264 0.0 0.0 0.00 0.00 0.00 89 1100.1
20260509101005 43 0 0.0 0.0 0.00 0.00 0.00 93 1015.1
20260509100144 43 264 0.0 0.0 0.00 0.00 0.00 88 1100.1
20260509100005 43 0 0.0 0.0 0.00 0.00 0.00 93 1015.0
20260509095006 43 0 0.0 0.0 0.00 0.00 0.00 93 1014.7
20260509094633 44 264 0.0 0.0 0.00 0.00 0.00 89 1100.1
20260509094505 43 0 0.0 0.0 0.00 0.00 0.00 93 1014.7
20260509093506 43 0 0.0 0.0 0.00 0.00 0.00 93 1014.3
20260509093005 42 0 0.0 0.0 0.00 0.00 0.00 93 1014.3
20260509093002 42 264 0.0 0.0 0.00 0.00 0.00 89 1100.1
20260509091641 43 264 0.0 0.0 0.00 0.00 0.00 89 1100.1
20260509090146 42 264 0.0 0.0 0.00 0.00 0.00 88 1100.1
20260509084635 41 264 0.0 0.0 0.00 0.00 0.00 88 1100.1
20260509084006 41 0 0.0 0.0 0.00 0.00 0.00 92 1014.3
20260509083505 41 0 0.0 0.0 0.00 0.00 0.00 92 1014.3
20260509083128 41 264 0.0 0.0 0.00 0.00 0.00 88 1100.1
20260509083005 41 0 0.0 0.0 0.00 0.00 0.00 92 1014.3
20260509082005 41 0 0.0 0.0 0.00 0.00 0.00 92 1014.3
20260509081629 41 264 0.0 0.0 0.00 0.00 0.00 88 1100.1
20260509081504 40 0 0.0 0.0 0.00 0.00 0.00 92 1014.4
20260509080504 40 0 0.0 0.0 0.00 0.00 0.00 92 1014.4
20260509080002 40 264 0.0 0.0 0.00 0.00 0.00 87 1100.1
20260509075504 40 0 0.0 0.0 0.00 0.00 0.00 92 1014.7
20260509075005 40 0 0.0 0.0 0.00 0.00 0.00 92 1014.7
20260509074637 41 264 0.0 0.0 0.00 0.00 0.00 88 1100.1
20260509074005 39 0 0.0 0.0 0.00 0.00 0.00 92 1014.6
20260509073505 39 0 0.0 0.0 0.00 0.00 0.00 92 1014.6